Time,TemperatureF,DewpointF,PressureIn,WindDirection,WindDirectionDegrees,WindSpeedMPH,WindSpeedGustMPH,Humidity,HourlyPrecipIn,Conditions,Clouds,dailyrainin,SoftwareType,DateUTC
2013-02-03 00:06:00,6.0,5.0,30.45,NNW,330,8.0,10.0,97,-99.99,,,-99.99,,2013-02-03 07:06:00,
2013-02-03 00:16:00,6.0,5.0,30.45,NNE,30,8.0,8.0,95,-99.99,,,-99.99,,2013-02-03 07:16:00,
2013-02-03 00:21:00,5.0,4.0,30.45,North,0,5.0,8.0,94,-99.99,,,-99.99,,2013-02-03 07:21:00,
2013-02-03 00:26:00,5.0,3.0,30.45,NNW,340,10.0,10.0,94,-99.99,,,-99.99,,2013-02-03 07:26:00,
2013-02-03 00:31:00,5.0,3.0,30.45,NNW,340,7.0,9.0,94,-99.99,,,-99.99,,2013-02-03 07:31:00,
2013-02-03 00:41:00,4.0,3.0,30.45,North,0,7.0,8.0,94,-99.99,,,-99.99,,2013-02-03 07:41:00,
2013-02-03 00:51:00,4.0,3.0,30.44,NNW,340,5.0,7.0,95,-99.99,,,-99.99,,2013-02-03 07:51:00,
2013-02-03 00:56:00,5.0,4.0,30.44,NW,320,6.0,6.0,95,-99.99,,,-99.99,,2013-02-03 07:56:00,
2013-02-03 01:06:00,4.0,3.0,30.44,NNW,340,9.0,9.0,95,-99.99,,,-99.99,,2013-02-03 08:06:00,
2013-02-03 01:11:00,4.0,3.0,30.44,North,350,10.0,10.0,95,-99.99,,,-99.99,,2013-02-03 08:11:00,
2013-02-03 01:21:00,4.0,3.0,30.43,NNW,330,8.0,11.0,95,-99.99,,,-99.99,,2013-02-03 08:21:00,
2013-02-03 01:31:00,4.0,3.0,30.42,North,350,9.0,10.0,95,-99.99,,,-99.99,,2013-02-03 08:31:00,
2013-02-03 01:36:00,4.0,3.0,30.42,NNW,340,7.0,9.0,95,-99.99,,,-99.99,,2013-02-03 08:36:00,
2013-02-03 01:46:00,4.0,3.0,30.42,NW,320,12.0,12.0,95,-99.99,,,-99.99,,2013-02-03 08:46:00,
2013-02-03 01:56:00,4.0,3.0,30.42,North,350,10.0,11.0,96,-99.99,,,-99.99,,2013-02-03 08:56:00,
2013-02-03 02:06:00,5.0,4.0,30.42,NW,320,12.0,13.0,96,-99.99,,,-99.99,,2013-02-03 09:06:00,
2013-02-03 02:11:00,5.0,4.0,30.42,North,0,8.0,13.0,96,-99.99,,,-99.99,,2013-02-03 09:11:00,
2013-02-03 02:16:00,5.0,4.0,30.41,NNW,340,7.0,11.0,96,-99.99,,,-99.99,,2013-02-03 09:16:00,
2013-02-03 02:21:00,5.0,5.0,30.41,NW,320,6.0,11.0,97,-99.99,,,-99.99,,2013-02-03 09:21:00,
2013-02-03 02:26:00,5.0,5.0,30.41,North,350,7.0,12.0,97,-99.99,,,-99.99,,2013-02-03 09:26:00,
2013-02-03 02:36:00,5.0,5.0,30.40,North,10,7.0,10.0,97,-99.99,,,-99.99,,2013-02-03 09:36:00,
2013-02-03 02:46:00,5.0,4.0,30.40,NE,40,6.0,8.0,95,-99.99,,,-99.99,,2013-02-03 09:46:00,
2013-02-03 02:51:00,4.0,3.0,30.40,North,0,6.0,8.0,94,-99.99,,,-99.99,,2013-02-03 09:51:00,
2013-02-03 02:56:00,4.0,3.0,30.41,North,0,9.0,9.0,95,-99.99,,,-99.99,,2013-02-03 09:56:00,
2013-02-03 03:06:00,4.0,3.0,30.40,NW,320,8.0,8.0,95,-99.99,,,-99.99,,2013-02-03 10:06:00,
2013-02-03 03:11:00,4.0,3.0,30.40,WNW,300,8.0,9.0,96,-99.99,,,-99.99,,2013-02-03 10:11:00,
2013-02-03 03:16:00,5.0,4.0,30.39,NNE,20,7.0,10.0,96,-99.99,,,-99.99,,2013-02-03 10:16:00,
2013-02-03 03:21:00,5.0,4.0,30.39,NNE,20,6.0,10.0,95,-99.99,,,-99.99,,2013-02-03 10:21:00,
2013-02-03 03:26:00,4.0,3.0,30.39,North,10,6.0,7.0,95,-99.99,,,-99.99,,2013-02-03 10:26:00,
2013-02-03 03:36:00,5.0,4.0,30.39,NW,310,4.0,8.0,95,-99.99,,,-99.99,,2013-02-03 10:36:00,
2013-02-03 03:41:00,4.0,3.0,30.39,WNW,290,3.0,5.0,94,-99.99,,,-99.99,,2013-02-03 10:41:00,
2013-02-03 03:51:00,3.0,2.0,30.39,NW,310,9.0,0.0,94,-99.99,,,-99.99,,2013-02-03 10:51:00,
2013-02-03 04:01:00,3.0,2.0,30.38,NNW,330,9.0,9.0,95,-99.99,,,-99.99,,2013-02-03 11:01:00,
2013-02-03 04:06:00,3.0,2.0,30.38,WNW,300,9.0,10.0,95,-99.99,,,-99.99,,2013-02-03 11:06:00,
2013-02-03 04:16:00,3.0,2.0,30.38,NW,320,6.0,10.0,96,-99.99,,,-99.99,,2013-02-03 11:16:00,
2013-02-03 04:21:00,3.0,2.0,30.37,NW,320,10.0,10.0,95,-99.99,,,-99.99,,2013-02-03 11:21:00,
2013-02-03 04:31:00,3.0,2.0,30.38,NW,310,10.0,12.0,96,-99.99,,,-99.99,,2013-02-03 11:31:00,
2013-02-03 04:41:00,4.0,3.0,30.37,North,0,7.0,11.0,97,-99.99,,,-99.99,,2013-02-03 11:41:00,
2013-02-03 04:51:00,3.0,2.0,30.37,NW,320,7.0,11.0,96,-99.99,,,-99.99,,2013-02-03 11:51:00,
2013-02-03 04:56:00,3.0,2.0,30.37,NNW,340,10.0,10.0,96,-99.99,,,-99.99,,2013-02-03 11:56:00,
2013-02-03 05:01:00,3.0,2.0,30.36,North,10,7.0,12.0,96,-99.99,,,-99.99,,2013-02-03 12:01:00,
2013-02-03 05:06:00,3.0,2.0,30.36,NNW,340,7.0,10.0,96,-99.99,,,-99.99,,2013-02-03 12:06:00,
2013-02-03 05:16:00,3.0,2.0,30.36,NW,320,10.0,11.0,96,-99.99,,,-99.99,,2013-02-03 12:16:00,
2013-02-03 05:26:00,3.0,2.0,30.36,NNE,30,7.0,10.0,96,-99.99,,,-99.99,,2013-02-03 12:26:00,
2013-02-03 05:36:00,2.0,1.0,30.36,North,0,6.0,8.0,96,-99.99,,,-99.99,,2013-02-03 12:36:00,
2013-02-03 05:46:00,3.0,2.0,30.35,North,0,9.0,9.0,96,-99.99,,,-99.99,,2013-02-03 12:46:00,
2013-02-03 05:56:00,3.0,2.0,30.35,NW,320,5.0,7.0,96,-99.99,,,-99.99,,2013-02-03 12:56:00,
2013-02-03 06:01:00,3.0,2.0,30.35,North,350,2.0,7.0,95,-99.99,,,-99.99,,2013-02-03 13:01:00,
2013-02-03 06:11:00,2.0,1.0,30.34,NNW,330,4.0,6.0,94,-99.99,,,-99.99,,2013-02-03 13:11:00,
2013-02-03 06:21:00,2.0,1.0,30.34,NW,320,4.0,6.0,94,-99.99,,,-99.99,,2013-02-03 13:21:00,
2013-02-03 06:26:00,1.0,0.0,30.34,WNW,300,12.0,12.0,94,-99.99,,,-99.99,,2013-02-03 13:26:00,
2013-02-03 06:36:00,1.0,0.0,30.34,NNW,340,7.0,11.0,95,-99.99,,,-99.99,,2013-02-03 13:36:00,
2013-02-03 06:41:00,1.0,0.0,30.33,NNW,330,7.0,11.0,95,-99.99,,,-99.99,,2013-02-03 13:41:00,
2013-02-03 06:46:00,1.0,0.0,30.33,NNW,340,10.0,11.0,96,-99.99,,,-99.99,,2013-02-03 13:46:00,
2013-02-03 06:56:00,2.0,1.0,30.33,NW,320,11.0,11.0,96,-99.99,,,-99.99,,2013-02-03 13:56:00,
2013-02-03 07:06:00,2.0,1.0,30.33,North,350,8.0,11.0,97,-99.99,,,-99.99,,2013-02-03 14:06:00,
2013-02-03 07:16:00,3.0,2.0,30.33,North,10,3.0,10.0,97,-99.99,,,-99.99,,2013-02-03 14:16:00,
2013-02-03 07:21:00,3.0,2.0,30.33,North,0,6.0,9.0,96,-99.99,,,-99.99,,2013-02-03 14:21:00,
2013-02-03 07:31:00,2.0,1.0,30.32,NNW,330,6.0,8.0,95,-99.99,,,-99.99,,2013-02-03 14:31:00,
2013-02-03 07:36:00,2.0,1.0,30.32,NW,320,3.0,7.0,95,-99.99,,,-99.99,,2013-02-03 14:36:00,
2013-02-03 07:46:00,3.0,2.0,30.32,NW,320,0.0,5.0,96,-99.99,,,-99.99,,2013-02-03 14:46:00,
2013-02-03 07:51:00,3.0,2.0,30.32,West,260,0.0,3.0,96,-99.99,,,-99.99,,2013-02-03 14:51:00,
2013-02-03 07:56:00,3.0,2.0,30.33,North,350,0.0,4.0,96,-99.99,,,-99.99,,2013-02-03 14:56:00,
2013-02-03 08:06:00,4.0,3.0,30.33,North,350,0.0,0.0,96,-99.99,,,-99.99,,2013-02-03 15:06:00,
2013-02-03 08:11:00,4.0,3.0,30.32,North,350,0.0,0.0,95,-99.99,,,-99.99,,2013-02-03 15:11:00,
2013-02-03 08:21:00,5.0,3.0,30.32,North,350,0.0,0.0,95,-99.99,,,-99.99,,2013-02-03 15:21:00,
2013-02-03 08:26:00,5.0,3.0,30.32,North,350,0.0,0.0,95,-99.99,,,-99.99,,2013-02-03 15:26:00,
2013-02-03 08:31:00,5.0,4.0,30.32,WNW,290,5.0,0.0,95,-99.99,,,-99.99,,2013-02-03 15:31:00,
2013-02-03 08:36:00,5.0,4.0,30.32,WNW,300,0.0,5.0,94,-99.99,,,-99.99,,2013-02-03 15:36:00,
2013-02-03 08:41:00,6.0,4.0,30.32,WNW,300,0.0,0.0,94,-99.99,,,-99.99,,2013-02-03 15:41:00,
2013-02-03 08:51:00,7.0,5.0,30.32,NE,40,0.0,0.0,94,-99.99,,,-99.99,,2013-02-03 15:51:00,
2013-02-03 09:01:00,8.0,6.0,30.31,NE,40,0.0,0.0,92,-99.99,,,-99.99,,2013-02-03 16:01:00,
2013-02-03 09:11:00,9.0,7.0,30.30,NE,40,0.0,0.0,92,-99.99,,,-99.99,,2013-02-03 16:11:00,
2013-02-03 09:16:00,10.0,8.0,30.30,NE,40,0.0,0.0,92,-99.99,,,-99.99,,2013-02-03 16:16:00,
2013-02-03 09:21:00,10.0,8.0,30.29,NE,40,0.0,0.0,91,-99.99,,,-99.99,,2013-02-03 16:21:00,
2013-02-03 09:26:00,11.0,8.0,30.29,NE,40,0.0,0.0,90,-99.99,,,-99.99,,2013-02-03 16:26:00,
2013-02-03 09:36:00,11.0,9.0,30.29,West,270,0.0,7.0,90,-99.99,,,-99.99,,2013-02-03 16:36:00,
2013-02-03 09:41:00,12.0,9.0,30.28,West,270,0.0,5.0,91,-99.99,,,-99.99,,2013-02-03 16:41:00,
2013-02-03 09:46:00,12.0,10.0,30.28,North,350,0.0,6.0,90,-99.99,,,-99.99,,2013-02-03 16:46:00,
2013-02-03 09:51:00,13.0,10.0,30.28,North,350,0.0,0.0,89,-99.99,,,-99.99,,2013-02-03 16:51:00,
2013-02-03 09:56:00,13.0,10.0,30.27,NW,320,0.0,5.0,89,-99.99,,,-99.99,,2013-02-03 16:56:00,
2013-02-03 10:06:00,14.0,11.0,30.27,NW,320,0.0,0.0,89,-99.99,,,-99.99,,2013-02-03 17:06:00,
2013-02-03 10:16:00,16.0,12.0,30.28,NW,320,0.0,3.0,87,-99.99,,,-99.99,,2013-02-03 17:16:00,
2013-02-03 10:21:00,16.0,13.0,30.28,NW,320,0.0,0.0,86,-99.99,,,-99.99,,2013-02-03 17:21:00,
2013-02-03 10:26:00,18.0,14.0,30.28,NW,320,0.0,0.0,85,-99.99,,,-99.99,,2013-02-03 17:26:00,
2013-02-03 10:36:00,19.0,14.0,30.28,NW,320,0.0,0.0,81,-99.99,,,-99.99,,2013-02-03 17:36:00,
2013-02-03 10:41:00,19.0,14.0,30.28,NW,320,0.0,0.0,80,-99.99,,,-99.99,,2013-02-03 17:41:00,
2013-02-03 10:46:00,20.0,14.0,30.28,NW,320,0.0,0.0,80,-99.99,,,-99.99,,2013-02-03 17:46:00,
2013-02-03 10:51:00,20.0,15.0,30.27,NW,320,0.0,0.0,79,-99.99,,,-99.99,,2013-02-03 17:51:00,
2013-02-03 10:56:00,20.0,15.0,30.27,NW,320,0.0,0.0,79,-99.99,,,-99.99,,2013-02-03 17:56:00,
2013-02-03 11:01:00,21.0,15.0,30.27,NW,320,0.0,0.0,78,-99.99,,,-99.99,,2013-02-03 18:01:00,
2013-02-03 11:11:00,21.0,15.0,30.26,NW,320,0.0,0.0,77,-99.99,,,-99.99,,2013-02-03 18:11:00,
2013-02-03 11:16:00,21.0,15.0,30.26,NW,320,0.0,2.0,76,-99.99,,,-99.99,,2013-02-03 18:16:00,
2013-02-03 11:21:00,21.0,15.0,30.26,SSE,160,7.0,0.0,76,-99.99,,,-99.99,,2013-02-03 18:21:00,
2013-02-03 11:26:00,21.0,15.0,30.26,SE,130,3.0,7.0,76,-99.99,,,-99.99,,2013-02-03 18:26:00,
2013-02-03 11:36:00,20.0,14.0,30.26,ESE,120,0.0,5.0,77,-99.99,,,-99.99,,2013-02-03 18:36:00,
2013-02-03 11:41:00,19.0,14.0,30.26,ESE,120,0.0,0.0,78,-99.99,,,-99.99,,2013-02-03 18:41:00,
2013-02-03 11:46:00,19.0,13.0,30.25,ESE,120,0.0,2.0,78,-99.99,,,-99.99,,2013-02-03 18:46:00,
2013-02-03 11:56:00,18.0,13.0,30.25,SE,140,0.0,4.0,79,-99.99,,,-99.99,,2013-02-03 18:56:00,
2013-02-03 12:06:00,18.0,13.0,30.24,SSE,150,3.0,7.0,81,-99.99,,,-99.99,,2013-02-03 19:06:00,
2013-02-03 12:11:00,18.0,13.0,30.24,ESE,110,0.0,8.0,81,-99.99,,,-99.99,,2013-02-03 19:11:00,
2013-02-03 12:21:00,18.0,13.0,30.23,East,90,5.0,7.0,80,-99.99,,,-99.99,,2013-02-03 19:21:00,
2013-02-03 12:31:00,18.0,13.0,30.22,East,80,0.0,4.0,81,-99.99,,,-99.99,,2013-02-03 19:31:00,
2013-02-03 12:36:00,18.0,13.0,30.22,East,80,0.0,0.0,81,-99.99,,,-99.99,,2013-02-03 19:36:00,
2013-02-03 12:41:00,18.0,13.0,30.22,ENE,70,4.0,7.0,80,-99.99,,,-99.99,,2013-02-03 19:41:00,
2013-02-03 12:51:00,19.0,14.0,30.21,ESE,110,0.0,0.0,80,-99.99,,,-99.99,,2013-02-03 19:51:00,
2013-02-03 13:01:00,19.0,14.0,30.20,ESE,110,0.0,0.0,79,-99.99,,,-99.99,,2013-02-03 20:01:00,
2013-02-03 13:11:00,20.0,14.0,30.19,East,90,0.0,3.0,79,-99.99,,,-99.99,,2013-02-03 20:11:00,
2013-02-03 13:16:00,20.0,14.0,30.19,SE,130,0.0,5.0,79,-99.99,,,-99.99,,2013-02-03 20:16:00,
2013-02-03 13:26:00,20.0,14.0,30.19,ESE,110,0.0,6.0,78,-99.99,,,-99.99,,2013-02-03 20:26:00,
2013-02-03 13:31:00,20.0,14.0,30.18,ESE,110,0.0,5.0,79,-99.99,,,-99.99,,2013-02-03 20:31:00,
2013-02-03 13:41:00,20.0,14.0,30.18,ESE,110,0.0,0.0,78,-99.99,,,-99.99,,2013-02-03 20:41:00,
2013-02-03 13:46:00,20.0,15.0,30.18,ESE,110,0.0,0.0,78,-99.99,,,-99.99,,2013-02-03 20:46:00,
2013-02-03 13:51:00,21.0,15.0,30.17,ESE,110,0.0,0.0,77,-99.99,,,-99.99,,2013-02-03 20:51:00,
2013-02-03 13:56:00,21.0,15.0,30.18,ESE,110,0.0,0.0,77,-99.99,,,-99.99,,2013-02-03 20:56:00,
2013-02-03 14:01:00,21.0,15.0,30.17,ESE,110,0.0,0.0,76,-99.99,,,-99.99,,2013-02-03 21:01:00,
2013-02-03 14:11:00,22.0,15.0,30.17,ESE,110,0.0,0.0,76,-99.99,,,-99.99,,2013-02-03 21:11:00,
2013-02-03 14:16:00,22.0,15.0,30.17,ESE,110,0.0,0.0,75,-99.99,,,-99.99,,2013-02-03 21:16:00,
2013-02-03 14:21:00,22.0,15.0,30.17,ESE,110,0.0,0.0,76,-99.99,,,-99.99,,2013-02-03 21:21:00,
2013-02-03 14:26:00,22.0,15.0,30.16,ESE,110,0.0,0.0,76,-99.99,,,-99.99,,2013-02-03 21:26:00,
2013-02-03 14:36:00,22.0,16.0,30.16,ESE,110,0.0,0.0,78,-99.99,,,-99.99,,2013-02-03 21:36:00,
2013-02-03 14:41:00,23.0,17.0,30.16,ESE,110,0.0,0.0,78,-99.99,,,-99.99,,2013-02-03 21:41:00,
2013-02-03 14:46:00,23.0,16.0,30.16,ESE,110,0.0,0.0,75,-99.99,,,-99.99,,2013-02-03 21:46:00,
2013-02-03 14:56:00,22.0,16.0,30.16,ESE,110,0.0,0.0,75,-99.99,,,-99.99,,2013-02-03 21:56:00,
2013-02-03 15:01:00,22.0,15.0,30.16,ESE,110,0.0,0.0,75,-99.99,,,-99.99,,2013-02-03 22:01:00,
2013-02-03 15:11:00,22.0,15.0,30.16,ESE,110,0.0,0.0,75,-99.99,,,-99.99,,2013-02-03 22:11:00,
2013-02-03 15:21:00,22.0,15.0,30.16,ESE,110,0.0,0.0,75,-99.99,,,-99.99,,2013-02-03 22:21:00,
2013-02-03 15:26:00,22.0,15.0,30.16,ESE,110,0.0,0.0,74,-99.99,,,-99.99,,2013-02-03 22:26:00,
2013-02-03 15:31:00,22.0,16.0,30.16,ESE,110,0.0,3.0,75,-99.99,,,-99.99,,2013-02-03 22:31:00,
2013-02-03 15:36:00,22.0,16.0,30.16,ESE,110,0.0,0.0,75,-99.99,,,-99.99,,2013-02-03 22:36:00,
2013-02-03 15:46:00,22.0,16.0,30.15,SSW,210,0.0,2.0,76,-99.99,,,-99.99,,2013-02-03 22:46:00,
2013-02-03 15:56:00,22.0,15.0,30.15,SSW,210,0.0,0.0,76,-99.99,,,-99.99,,2013-02-03 22:56:00,
2013-02-03 16:01:00,22.0,15.0,30.14,SSW,210,0.0,0.0,77,-99.99,,,-99.99,,2013-02-03 23:01:00,
2013-02-03 16:06:00,21.0,15.0,30.14,SSW,210,0.0,0.0,76,-99.99,,,-99.99,,2013-02-03 23:06:00,
2013-02-03 16:16:00,21.0,15.0,30.14,SSW,210,0.0,0.0,77,-99.99,,,-99.99,,2013-02-03 23:16:00,
2013-02-03 16:21:00,21.0,15.0,30.14,SSW,210,0.0,0.0,77,-99.99,,,-99.99,,2013-02-03 23:21:00,
2013-02-03 16:31:00,21.0,15.0,30.13,SSW,210,0.0,0.0,79,-99.99,,,-99.99,,2013-02-03 23:31:00,
2013-02-03 16:41:00,20.0,15.0,30.14,ESE,110,0.0,5.0,80,-99.99,,,-99.99,,2013-02-03 23:41:00,
2013-02-03 16:51:00,20.0,15.0,30.13,ESE,110,0.0,0.0,81,-99.99,,,-99.99,,2013-02-03 23:51:00,
2013-02-03 17:01:00,19.0,14.0,30.12,ESE,110,0.0,0.0,80,-99.99,,,-99.99,,2013-02-04 00:01:00,
2013-02-03 17:11:00,19.0,14.0,30.12,ESE,110,0.0,0.0,82,-99.99,,,-99.99,,2013-02-04 00:11:00,
2013-02-03 17:16:00,19.0,14.0,30.12,ESE,110,0.0,0.0,82,-99.99,,,-99.99,,2013-02-04 00:16:00,
2013-02-03 17:21:00,18.0,14.0,30.12,ESE,110,0.0,0.0,83,-99.99,,,-99.99,,2013-02-04 00:21:00,
2013-02-03 17:26:00,18.0,14.0,30.12,ESE,110,0.0,0.0,84,-99.99,,,-99.99,,2013-02-04 00:26:00,
2013-02-03 17:31:00,18.0,14.0,30.13,ESE,110,0.0,0.0,85,-99.99,,,-99.99,,2013-02-04 00:31:00,
2013-02-03 17:36:00,18.0,15.0,30.13,ESE,110,0.0,0.0,87,-99.99,,,-99.99,,2013-02-04 00:36:00,
2013-02-03 17:46:00,18.0,14.0,30.13,ESE,110,0.0,0.0,85,-99.99,,,-99.99,,2013-02-04 00:46:00,
2013-02-03 17:51:00,18.0,14.0,30.13,ESE,110,0.0,0.0,85,-99.99,,,-99.99,,2013-02-04 00:51:00,
2013-02-03 17:56:00,18.0,14.0,30.13,ESE,110,0.0,0.0,86,-99.99,,,-99.99,,2013-02-04 00:56:00,
2013-02-03 18:06:00,17.0,14.0,30.13,ESE,110,0.0,0.0,86,-99.99,,,-99.99,,2013-02-04 01:06:00,
2013-02-03 18:11:00,17.0,14.0,30.13,ESE,110,0.0,0.0,87,-99.99,,,-99.99,,2013-02-04 01:11:00,
2013-02-03 18:16:00,17.0,14.0,30.13,ESE,110,0.0,0.0,87,-99.99,,,-99.99,,2013-02-04 01:16:00,
2013-02-03 18:21:00,17.0,14.0,30.13,ESE,110,0.0,0.0,87,-99.99,,,-99.99,,2013-02-04 01:21:00,
2013-02-03 18:26:00,17.0,14.0,30.14,ESE,110,0.0,2.0,88,-99.99,,,-99.99,,2013-02-04 01:26:00,
2013-02-03 18:31:00,16.0,13.0,30.14,North,350,0.0,3.0,88,-99.99,,,-99.99,,2013-02-04 01:31:00,
2013-02-03 18:41:00,16.0,13.0,30.14,East,100,0.0,0.0,88,-99.99,,,-99.99,,2013-02-04 01:41:00,
2013-02-03 18:51:00,15.0,13.0,30.14,NNW,330,0.0,4.0,89,-99.99,,,-99.99,,2013-02-04 01:51:00,
2013-02-03 19:01:00,15.0,13.0,30.14,WNW,290,3.0,0.0,90,-99.99,,,-99.99,,2013-02-04 02:01:00,
2013-02-03 19:06:00,15.0,12.0,30.14,WNW,290,0.0,4.0,89,-99.99,,,-99.99,,2013-02-04 02:06:00,
2013-02-03 19:11:00,15.0,12.0,30.14,WNW,290,0.0,0.0,89,-99.99,,,-99.99,,2013-02-04 02:11:00,
2013-02-03 19:21:00,14.0,12.0,30.14,ESE,110,0.0,3.0,90,-99.99,,,-99.99,,2013-02-04 02:21:00,
2013-02-03 19:26:00,14.0,11.0,30.15,WNW,290,0.0,3.0,90,-99.99,,,-99.99,,2013-02-04 02:26:00,
2013-02-03 19:31:00,14.0,11.0,30.15,WNW,290,0.0,0.0,91,-99.99,,,-99.99,,2013-02-04 02:31:00,
2013-02-03 19:36:00,14.0,12.0,30.14,WNW,290,0.0,0.0,91,-99.99,,,-99.99,,2013-02-04 02:36:00,
2013-02-03 19:46:00,13.0,11.0,30.14,WNW,290,4.0,0.0,91,-99.99,,,-99.99,,2013-02-04 02:46:00,
2013-02-03 19:56:00,13.0,11.0,30.14,North,0,0.0,0.0,92,-99.99,,,-99.99,,2013-02-04 02:56:00,
2013-02-03 20:01:00,13.0,11.0,30.14,North,0,0.0,3.0,92,-99.99,,,-99.99,,2013-02-04 03:01:00,
2013-02-03 20:11:00,12.0,10.0,30.14,NW,320,3.0,3.0,91,-99.99,,,-99.99,,2013-02-04 03:11:00,
2013-02-03 20:16:00,12.0,10.0,30.14,NNW,330,0.0,4.0,91,-99.99,,,-99.99,,2013-02-04 03:16:00,
2013-02-03 20:26:00,11.0,8.0,30.14,North,10,0.0,0.0,91,-99.99,,,-99.99,,2013-02-04 03:26:00,
2013-02-03 20:31:00,10.0,8.0,30.14,North,10,0.0,0.0,91,-99.99,,,-99.99,,2013-02-04 03:31:00,
2013-02-03 20:36:00,10.0,8.0,30.14,North,10,0.0,0.0,91,-99.99,,,-99.99,,2013-02-04 03:36:00,
2013-02-03 20:46:00,9.0,7.0,30.14,NW,320,10.0,10.0,91,-99.99,,,-99.99,,2013-02-04 03:46:00,
2013-02-03 20:51:00,9.0,7.0,30.14,NNW,330,7.0,10.0,92,-99.99,,,-99.99,,2013-02-04 03:51:00,
2013-02-03 20:56:00,9.0,7.0,30.15,North,10,6.0,9.0,92,-99.99,,,-99.99,,2013-02-04 03:56:00,
2013-02-03 21:01:00,9.0,7.0,30.15,WNW,300,5.0,7.0,92,-99.99,,,-99.99,,2013-02-04 04:01:00,
2013-02-03 21:11:00,8.0,6.0,30.15,NNW,330,6.0,6.0,92,-99.99,,,-99.99,,2013-02-04 04:11:00,
2013-02-03 21:16:00,8.0,6.0,30.15,WNW,300,8.0,8.0,92,-99.99,,,-99.99,,2013-02-04 04:16:00,
2013-02-03 21:21:00,7.0,5.0,30.16,NW,320,8.0,10.0,92,-99.99,,,-99.99,,2013-02-04 04:21:00,
2013-02-03 21:31:00,7.0,5.0,30.16,NNW,340,7.0,9.0,92,-99.99,,,-99.99,,2013-02-04 04:31:00,
2013-02-03 21:41:00,7.0,6.0,30.15,NNE,20,6.0,9.0,93,-99.99,,,-99.99,,2013-02-04 04:41:00,
2013-02-03 21:46:00,7.0,5.0,30.15,North,0,6.0,9.0,92,-99.99,,,-99.99,,2013-02-04 04:46:00,
2013-02-03 21:51:00,6.0,4.0,30.15,WNW,300,0.0,6.0,92,-99.99,,,-99.99,,2013-02-04 04:51:00,
2013-02-03 21:56:00,6.0,4.0,30.15,WSW,240,0.0,3.0,92,-99.99,,,-99.99,,2013-02-04 04:56:00,
2013-02-03 22:01:00,6.0,4.0,30.15,WSW,240,0.0,0.0,92,-99.99,,,-99.99,,2013-02-04 05:01:00,
2013-02-03 22:06:00,5.0,3.0,30.15,WSW,240,0.0,0.0,92,-99.99,,,-99.99,,2013-02-04 05:06:00,
2013-02-03 22:16:00,5.0,3.0,30.16,WSW,240,0.0,0.0,93,-99.99,,,-99.99,,2013-02-04 05:16:00,
2013-02-03 22:21:00,5.0,4.0,30.16,WSW,240,0.0,0.0,94,-99.99,,,-99.99,,2013-02-04 05:21:00,
2013-02-03 22:26:00,5.0,3.0,30.16,WSW,240,0.0,0.0,93,-99.99,,,-99.99,,2013-02-04 05:26:00,
2013-02-03 22:31:00,4.0,3.0,30.16,WSW,240,0.0,0.0,93,-99.99,,,-99.99,,2013-02-04 05:31:00,
2013-02-03 22:36:00,4.0,3.0,30.16,WSW,240,0.0,0.0,94,-99.99,,,-99.99,,2013-02-04 05:36:00,
2013-02-03 22:46:00,4.0,3.0,30.16,WSW,240,0.0,0.0,94,-99.99,,,-99.99,,2013-02-04 05:46:00,
2013-02-03 22:56:00,4.0,2.0,30.16,NNW,330,7.0,9.0,94,-99.99,,,-99.99,,2013-02-04 05:56:00,
2013-02-03 23:01:00,4.0,3.0,30.16,North,350,3.0,8.0,94,-99.99,,,-99.99,,2013-02-04 06:01:00,
2013-02-03 23:06:00,4.0,2.0,30.16,NNW,330,7.0,7.0,93,-99.99,,,-99.99,,2013-02-04 06:06:00,
2013-02-03 23:11:00,3.0,2.0,30.16,NNW,340,11.0,11.0,94,-99.99,,,-99.99,,2013-02-04 06:11:00,
2013-02-03 23:21:00,3.0,2.0,30.16,North,350,5.0,11.0,94,-99.99,,,-99.99,,2013-02-04 06:21:00,
2013-02-03 23:26:00,3.0,2.0,30.17,NNW,340,7.0,10.0,95,-99.99,,,-99.99,,2013-02-04 06:26:00,
2013-02-03 23:31:00,3.0,2.0,30.16,North,0,8.0,9.0,95,-99.99,,,-99.99,,2013-02-04 06:31:00,
2013-02-03 23:41:00,3.0,2.0,30.16,North,0,9.0,11.0,95,-99.99,,,-99.99,,2013-02-04 06:41:00,
2013-02-03 23:46:00,4.0,3.0,30.16,NNW,340,9.0,10.0,96,-99.99,,,-99.99,,2013-02-04 06:46:00,
2013-02-03 23:51:00,4.0,3.0,30.16,North,350,9.0,13.0,96,-99.99,,,-99.99,,2013-02-04 06:51:00,